Regional Weather Roundup
Issued by NWS

Home | Current Version | Previous Version | Text Only | Print | Product List | Glossary Off
Versions: 1 2 3 4 5 6 7 8 9 10 11 12 13 14 15 16 17 18 19 20 21 22 23 24 25 26 27 28 29 30 31 32 33 34 35 36 37 38 39 40 41 42 43 44 45 46 47 48 49 50

000
ASUS45 KBOU 021810
RWRCO

WEATHER ROUNDUP FOR COLORADO
NATIONAL WEATHER SERVICE DENVER/BOULDER CO
1200 PM MDT THU JUL 02 2015

NOTE: "FAIR" INDICATES FEW OR NO CLOUDS BELOW 12000 FEET WITH NO
SIGNIFICANT WEATHER AND/OR OBSTRUCTIONS TO VISIBILITY.

COZ001>005-013-030-031-021900-
...NORTHWEST COLORADO...

CITY           SKY/WX    TMP DP  RH WIND       PRES   REMARKS
CRAIG          SUNNY     84  49  29 N6        30.22F
HAYDEN         MOSUNNY   79  46  31 CALM      30.24S
MEEKER         SUNNY     80  50  34 SW6       30.23F
MOUNT WERNER   NOT AVBL
STEAMBOAT SPGS MOSUNNY   78  50  36 W5        30.26S
WALDEN         SUNNY     70  43  37 SW3       30.37S
$$

COZ006>008-011-021900-
...WEST CENTRAL VALLEYS...

CITY           SKY/WX    TMP DP  RH WIND       PRES   REMARKS
GRAND JUNCTION PTSUNNY   88  50  27 W7        30.10S
MONTROSE       CLOUDY    83  51  33 NW5       30.18F
EAGLE          MOSUNNY   79  48  34 SW7       30.25F
RIFLE          MOSUNNY   84  48  28 NW6       30.15F
DELTA          CLOUDY    89  49  25 SE5       30.14F
NUCLA          CLOUDY    81  50  34 NW6       30.23F
$$

COZ017>023-064>068-021900-
...SOUTHWEST COLORADO...

CITY           SKY/WX    TMP DP  RH WIND       PRES   REMARKS
DURANGO        MOSUNNY   79  50  36 W5        30.22F
CORTEZ         SUNNY     84  53  34 VRB3      30.18F
PAGOSA SPRINGS MOSUNNY   76  46  33 CALM      30.31F
TELLURIDE      CLOUDY    70  48  46 W5        30.47S
WOLF CREEK PAS NOT AVBL
$$

COZ009-010-012-014-032>034-037-058>063-021900-
...CENTRAL COLORADO...

CITY           SKY/WX    TMP DP  RH WIND       PRES   REMARKS
ASPEN          MOSUNNY   77  49  37 VRB3      30.32S
BUENA VISTA    PTSUNNY   73  50  44 E5        30.34F
COPPER MTN     MOSUNNY   61  39  44 W18       30.67R
BERTHOUD PASS  FAIR      52  43  71 MISG      30.72R THUNDER
COTTONWOOD PAS NOT AVBL
GUNNISON       CLOUDY    73  48  40 SW6       30.36F
KREMMLING      MOSUNNY   79  41  25 CALM      30.32S
LEADVILLE      PTSUNNY   65  44  46 CALM      30.47S
MONARCH PASS   CLOUDY    59  46  63 S3        30.77R
SALIDA         PTSUNNY   75  53  45 E12G18    30.39F
SUNLIGHT       MOSUNNY   66  52  59 SW5       30.60R
WILKERSON PASS PTSUNNY   59  50  72 CALM      30.63S
$$

COZ069>075-021900-
...SAN LUIS VALLEY/SANGRE DE CRISTO MOUNTAINS...

CITY           SKY/WX    TMP DP  RH WIND       PRES   REMARKS
ALAMOSA        CLOUDY    71  52  50 NE7       30.33F
LA VETA PASS   DRZL/FOG  50  48  93 MISG      30.54S VSB<1/4
SAGUACHE       CLOUDY    70  52  52 S5        30.36F
$$

COZ035-036-038>040-021900-
...NORTHERN COLORADO FRONT RANGE...

CITY           SKY/WX    TMP DP  RH WIND       PRES   REMARKS
DENVER INTL AP MOSUNNY   73  54  51 VRB5      30.22F
DMNS CITY PARK   N/A     74  55  51 W1        30.21F
AURORA         MOSUNNY   71  55  56 N2        30.25F
FRONT RANGE AP MOSUNNY   73  57  56 SW5       30.24F
ERIE MUNI ARPT SUNNY     77  55  46 S3        30.21S
BOULDER MUN AP SUNNY     77  52  41 E5        30.21S
CENTENNIAL     MOSUNNY   72  55  55 N3        30.25F
BROOMFIELD     PTSUNNY   73  57  56 S3        30.25S
FORT COLLINS   SUNNY     73  57  56 NW3       30.21F
LONGMONT       SUNNY     81  56  41 E5        30.21S
$$

COZ041-046-047-076>085-087-088-021900-
...PIKES PEAK/PALMER DIVIDE AND SOUTHERN FOOTHILLS...

CITY           SKY/WX    TMP DP  RH WIND       PRES   REMARKS
COLO. SPRINGS  PTSUNNY   73  54  51 VRB7      30.29F
A. F. ACADEMY  MOSUNNY   68  55  63 S3        30.29F
ELLICOTT       PTSUNNY  N/A N/A N/A CALM      30.28S
FALCON         PTSUNNY   70  52  53 NW3       30.33F
FORT CARSON    NOT AVBL
LIMON          SUNNY     71  56  58 VRB3      30.23S
MONUMENT HILL  SUNNY     68  54  60 NW6       30.33S
TRINIDAD       CLOUDY    67  58  72 N14       30.28R
$$

COZ042>045-048>051-090-091-021900-
...NORTHEAST COLORADO...

CITY           SKY/WX    TMP DP  RH WIND       PRES   REMARKS
GREELEY ARPT   MOSUNNY   75  57  53 SW5       30.20F
AKRON          SUNNY     74  59  59 W18G24    30.17F
BURLINGTON     PTSUNNY   76  58  53 N13       30.13R
WRAY           MOSUNNY   83  55  38 NW18G26   30.11F
STERLING       SUNNY     81  59  47 W17         N/A
HOLYOKE        MOSUNNY   81  57  44 NW20      30.11F
FORT MORGAN    SUNNY     75  56  51 W14G20    30.19S
$$

COZ086-089-092>099-021900-
...SOUTHEAST COLORADO...

CITY           SKY/WX    TMP DP  RH WIND       PRES   REMARKS
PUEBLO         CLOUDY    79  55  43 VRB5      30.20F
LA JUNTA       PTSUNNY   78  58  49 NE8       30.16F
LAMAR          MOSUNNY   82  58  43 NE10      30.09F
SPRINGFIELD      N/A     80  60  50 N16G23    30.13S
$$



USA.gov is the U.S. government's official web portal to all federal, state and local government web resources and services.